Terminal Aerodrome Forecast
Issued by NWS

Home | Current Version | Previous Version | Text Only | Print | Product List | Glossary Off
Versions: 1 2 3 4 5 6 7 8 9 10 11 12 13 14 15 16 17 18 19 20 21 22 23 24

000
FTUS43 KABR 041049 AAC
TAFATY
TAF AMD
KATY 041049Z 0411/0506 19011KT P6SM OVC007
     FM041400 26011KT P6SM BKN080
     FM041600 27014KT P6SM SCT150
     FM050000 19009KT P6SM SCT150=

USA.gov is the U.S. government's official web portal to all federal, state and local government web resources and services.